OBJECT M, 63993

Orbit data source: Space-Track

You're viewing an Uncataloged Satellite

Recently launched and/or uncataloged satellites may have evolving metadata. Metadata may include but not limited to: Owner, Maufacturer, Bus, Motor, and Mission.

OBJECT M, 63993 is a Chinese satellite in SSO that was launched on Wed, 14 May 2025 UTC via a CHANG ZHENG 2D launch vehicle from the Jiuquan Satellite Launch Center, China (JSC). Unknown objects in Earth's orbit typically refer to objects detected orbiting the Earth but have not yet been identified or cataloged. These objects could be anything from previously untracked satellites, spent rocket stages, debris from satellite collisions, or even natural meteoroids temporarily captured by Earth's gravity.

Loading next visibility...
Identifier
63993, 2025-100M
Orbit
SSO
Last TLE update
9 hours ago
Origin
Flag of CNCN / PRC
Manufacturer
Unknown
Mission
Operational Commercial Technology
Bus & Motor
Unknown
Mass
Unknown
Launch date (UTC)
2025-05-14 (3 months ago)
Launch vehicle
CHANG ZHENG 2D
Launch site
Jiuquan Satellite Launch Center, China (JSC)
Object type
Unknown
Shape & HBR
Box + 2 Pan, 0.1 m
Radar Cross Section
0.135 m², Medium (>0.1 m² and < 1m²)

Expand to show TLE details & history

TLE from 9 hours ago
0 OBJECT M
1 63993U 25100M   25211.16083376  .00017716  00000-0  83554-3 0  9993
2 63993  97.4032 285.4326 0013076  16.9278 343.2391 15.19459196 11677
Epoch: 2025-07-30T03:51Z
TLE epoch observation values (Epoch: 2025-07-30T03:51:36.036Z)
Latitude
-0°
Longitude
-80.51159°
Altitude
501.942 km
Speed
7.618 km/s
True Right ascension
19h 01m 43s
True Declination
0° 00' 00"
Sunlit
Object was in full shadow at epoch
Visualization orbit readout
Latitude
-12.4551°
Longitude
98.2102°
Altitude
521.96 km
Speed
7.597 km/s
Apparent Right ascension
09h 43m 45s
Apparent Declination
-38° 28' 43"
Sunlit
Object is in daylight
Visualization observer readout
Local Sidereal Time
02:09:31
Azimuth
111.069° ESE
Elevation
-39.737°
Doppler factor
1
Orbital elements
Apogee altitude
513.44 km
Perigee altitude
495.441 km
Semi-major axis
6,882.577 km
Eccentricity
0.00131
Inclination
97.4032°
RAAN
285.4326°
Arg. of periapsis
16.9278°
True anomaly
343.19582°
Mean anomaly
343.2391°
Eccentric anomaly
343.21747°
Mean motion
3.80116 °/min
Orbital period
94.71 mins
BSTAR
0.00083554
Loading maneuver chart data...
Loading SW <> Apogee altitude chart data...
Loading historical data...
Loading historical data...
Loading historical data...
Loading historical data...
Loading historical data...
Loading historical data...
Loading historical data...
|